GW2062 Weather Reports


Display with metric or nautical units.
time (UTC)temp
F
wind
direction
speed
MPH
gust
MPH
rain 1hr
in
rain 24hr
in
rain mn
in
humidity
%
barometer
mb
20260510132515 48 300 0.0 1.0 0.00 0.15 0.00 55 1012.5
20260510132013 48 158 0.0 1.0 0.00 0.15 0.00 56 1012.3
20260510131513 47 65 0.0 1.0 0.00 0.15 0.00 56 1012.3
20260510131011 47 302 0.0 1.0 0.00 0.15 0.00 56 1012.3
20260510130510 46 214 0.0 1.0 0.00 0.15 0.00 61 1012.3
20260510130010 46 91 0.0 1.0 0.00 0.15 0.00 62 1012.2
20260510125508 46 103 0.0 0.0 0.00 0.15 0.00 62 1012.2
20260510125008 46 307 0.0 0.0 0.00 0.15 0.00 64 1012.1
20260510124513 45 283 0.0 1.0 0.00 0.15 0.00 65 1012.1
20260510124007 45 78 0.0 1.0 0.00 0.15 0.00 66 1012.1
20260510123505 44 278 0.0 0.0 0.00 0.15 0.00 64 1012.0
20260510123004 44 260 0.0 0.0 0.00 0.15 0.00 71 1012.0
20260510122504 44 305 0.0 0.0 0.00 0.15 0.00 71 1012.1
20260510122006 44 301 0.0 0.0 0.00 0.15 0.00 73 1012.0
20260510121502 43 276 0.0 1.0 0.00 0.15 0.00 73 1011.9
20260510121001 43 261 0.0 1.0 0.00 0.15 0.00 75 1011.9
20260510120602 43 262 0.0 0.0 0.00 0.15 0.00 78 1012.0
20260510120058 42 262 0.0 0.0 0.00 0.15 0.00 79 1011.8
20260510115556 42 257 0.0 0.0 0.00 0.15 0.00 80 1011.8
20260510115055 42 267 0.0 0.0 0.00 0.15 0.00 82 1011.7
20260510114556 41 307 0.0 0.0 0.00 0.15 0.00 83 1011.8
20260510114053 40 309 0.0 0.0 0.00 0.15 0.00 85 1011.8
20260510113550 40 266 0.0 0.0 0.00 0.15 0.00 88 1011.7
20260510113049 39 245 0.0 0.0 0.00 0.15 0.00 90 1011.6
20260510112049 38 238 0.0 0.0 0.00 0.15 0.00 93 1011.4
20260510111555 37 238 0.0 0.0 0.00 0.15 0.00 94 1011.2
20260510111045 36 238 0.0 0.0 0.00 0.15 0.00 95 1011.1
20260510110544 36 238 0.0 0.0 0.00 0.15 0.00 96 1011.1
20260510110045 35 238 0.0 0.0 0.00 0.15 0.00 96 1011.0
20260510105540 35 238 0.0 0.0 0.00 0.15 0.00 96 1010.9
20260510105039 35 238 0.0 0.0 0.00 0.15 0.00 96 1010.9
20260510104538 35 238 0.0 0.0 0.00 0.15 0.00 96 1010.8
20260510104037 34 238 0.0 0.0 0.00 0.15 0.15 96 1010.9
20260510103541 34 238 0.0 0.0 0.00 0.15 0.15 96 1010.8
20260510103137 34 238 0.0 0.0 0.00 0.15 0.15 96 1010.7
20260510102040 34 69 0.0 0.0 0.00 0.15 0.15 96 1010.6
20260510101535 33 69 0.0 0.0 0.00 0.15 0.15 95 1010.5
20260510101034 34 69 0.0 0.0 0.00 0.15 0.15 95 1010.4
20260510100536 34 69 0.0 0.0 0.00 0.15 0.15 95 1010.3
20260510100035 34 69 0.0 0.0 0.00 0.15 0.15 95 1010.2
20260510095532 34 69 0.0 0.0 0.00 0.15 0.15 95 1010.2
20260510095032 34 69 0.0 0.0 0.00 0.15 0.15 95 1010.1
20260510094542 34 69 0.0 0.0 0.00 0.15 0.15 95 1010.1
20260510094030 34 69 0.0 0.0 0.00 0.15 0.15 95 1010.0
20260510093529 34 69 0.0 0.0 0.00 0.15 0.15 95 1009.9
20260510093028 34 69 0.0 0.0 0.00 0.15 0.15 95 1009.7
20260510092026 34 69 0.0 0.0 0.00 0.15 0.15 94 1009.6
20260510091532 34 69 0.0 0.0 0.00 0.15 0.15 94 1009.5
20260510091024 34 69 0.0 0.0 0.00 0.15 0.15 94 1009.5
20260510090524 34 69 0.0 0.0 0.00 0.15 0.15 94 1009.3
20260510090024 34 69 0.0 0.0 0.00 0.15 0.15 94 1009.2
20260510085521 35 69 0.0 0.0 0.00 0.15 0.15 94 1009.1
20260510085021 35 69 0.0 0.0 0.00 0.15 0.15 93 1009.0
20260510084521 35 69 0.0 0.0 0.00 0.15 0.15 93 1008.9
20260510084020 35 69 0.0 0.0 0.00 0.15 0.15 93 1008.8
20260510083519 35 69 0.0 0.0 0.00 0.15 0.15 93 1008.7
20260510083023 35 69 0.0 0.0 0.00 0.15 0.15 92 1008.7
20260510082022 36 69 0.0 0.0 0.00 0.15 0.15 92 1008.6
20260510081518 36 69 0.0 0.0 0.00 0.15 0.15 92 1008.5
20260510081015 36 69 0.0 0.0 0.00 0.15 0.15 91 1008.4
20260510080515 36 69 0.0 0.0 0.00 0.15 0.15 91 1008.2
20260510080022 37 69 0.0 0.0 0.00 0.15 0.15 91 1008.2
20260510075512 37 69 0.0 0.0 0.00 0.15 0.15 90 1008.2
20260510075011 37 69 0.0 0.0 0.00 0.15 0.15 90 1008.1
20260510074511 37 69 0.0 0.0 0.00 0.15 0.15 89 1008.0
20260510074012 38 69 0.0 0.0 0.00 0.15 0.15 89 1008.1
20260510073508 38 69 0.0 0.0 0.00 0.15 0.15 88 1007.9
20260510073017 38 69 0.0 0.0 0.00 0.15 0.15 87 1007.9
20260510072006 39 69 0.0 0.0 0.00 0.15 0.15 85 1007.8
20260510071505 40 70 0.0 0.0 0.00 0.15 0.15 85 1007.8
20260510071002 40 69 0.0 0.0 0.00 0.15 0.15 84 1007.7
20260510070502 40 69 0.0 0.0 0.00 0.15 0.15 84 1007.7
20260510070001 40 104 0.0 0.0 0.00 0.15 0.15 84 1007.6
20260510065601 41 102 0.0 0.0 0.00 0.15 0.15 83 1007.5
20260510065059 41 102 0.0 0.0 0.00 0.15 0.15 83 1007.5
20260510064605 41 103 0.0 0.0 0.00 0.15 0.15 83 1007.4
20260510064058 41 91 0.0 0.0 0.00 0.15 0.15 83 1007.5
20260510063557 41 120 0.0 0.0 0.00 0.15 0.15 82 1007.4
20260510063057 41 136 0.0 0.0 0.00 0.15 0.15 83 1007.3
20260510062055 42 140 0.0 0.0 0.00 0.15 0.15 82 1007.2
20260510061559 42 124 0.0 0.0 0.00 0.15 0.15 82 1007.1
20260510061054 42 20 0.0 0.0 0.00 0.15 0.15 82 1007.1
20260510060556 42 117 0.0 0.0 0.00 0.15 0.15 82 1007.1
20260510060055 42 124 0.0 0.0 0.00 0.15 0.15 81 1007.0
20260510055555 42 132 0.0 1.0 0.00 0.15 0.15 81 1007.1
20260510055052 42 122 0.0 1.0 0.00 0.15 0.15 82 1006.9
20260510054552 42 141 0.0 0.0 0.00 0.15 0.15 81 1006.9
20260510054052 42 26 0.0 0.0 0.00 0.15 0.15 81 1007.0
20260510053551 43 312 0.0 8.0 0.00 0.15 0.15 80 1006.9
20260510053050 43 47 0.0 8.0 0.00 0.15 0.15 80 1006.8
20260510052052 43 103 0.0 1.0 0.00 0.15 0.15 79 1006.7
20260510051600 43 148 0.0 0.0 0.00 0.15 0.15 79 1006.7
20260510051050 43 294 0.0 0.0 0.00 0.15 0.15 78 1006.5
20260510050547 44 151 0.0 0.0 0.00 0.15 0.15 78 1006.4
20260510050047 44 74 0.0 1.0 0.00 0.15 0.15 77 1006.3
20260510045547 44 91 0.0 1.0 0.00 0.15 0.15 76 1006.2
20260510045046 44 30 0.0 1.0 0.00 0.15 0.15 76 1006.1
20260510044550 44 67 0.0 1.0 0.00 0.15 0.15 76 1006.1
20260510044044 45 60 0.0 1.0 0.00 0.15 0.15 76 1005.9
20260510043544 44 124 0.0 0.0 0.00 0.15 0.15 76 1005.7
20260510043045 45 113 0.0 0.0 0.00 0.15 0.15 77 1005.6
20260510042041 45 63 0.0 0.0 0.00 0.15 0.15 77 1005.4
20260510041543 45 63 0.0 0.0 0.00 0.15 0.15 76 1005.3
20260510041041 46 63 0.0 0.0 0.00 0.15 0.15 76 1005.2
20260510040540 46 78 0.0 0.0 0.00 0.15 0.15 75 1005.1
20260510040039 46 108 0.0 0.0 0.00 0.15 0.15 75 1005.0
20260510035539 47 94 0.0 0.0 0.00 0.15 0.15 74 1005.0
20260510035038 47 99 0.0 0.0 0.00 0.15 0.15 74 1005.0
20260510034538 47 117 0.0 0.0 0.00 0.15 0.15 74 1004.9
20260510034039 48 1 0.0 3.0 0.00 0.15 0.15 75 1004.8
20260510033537 49 46 0.0 3.0 0.00 0.15 0.15 73 1004.8
20260510033036 50 68 0.0 1.0 0.00 0.15 0.15 72 1004.7
20260510032036 51 139 0.0 0.0 0.00 0.15 0.15 69 1004.4
20260510031535 51 141 0.0 0.0 0.00 0.15 0.15 71 1004.4
20260510031034 51 134 0.0 0.0 0.00 0.15 0.15 73 1004.2
20260510030533 52 89 0.0 0.0 0.00 0.15 0.15 73 1004.2
20260510030042 52 89 0.0 0.0 0.00 0.15 0.15 72 1004.2
20260510025533 52 90 0.0 0.0 0.00 0.15 0.15 74 1004.2
20260510025033 51 270 0.0 0.0 0.00 0.15 0.15 75 1003.9
20260510024533 51 270 0.0 0.0 0.00 0.15 0.15 75 1004.1
20260510024031 51 200 0.0 0.0 0.00 0.15 0.15 77 1004.0
20260510023530 51 101 0.0 0.0 0.00 0.15 0.15 76 1003.8
20260510023030 51 101 0.0 0.0 0.00 0.15 0.15 74 1003.6
20260510022030 52 101 0.0 0.0 0.00 0.15 0.15 73 1003.4
20260510021527 52 101 0.0 0.0 0.00 0.15 0.15 72 1003.3
20260510021026 52 92 0.0 0.0 0.00 0.15 0.15 71 1003.3
20260510020527 53 142 0.0 0.0 0.00 0.15 0.15 69 1003.2
20260510020025 53 143 0.0 0.0 0.00 0.15 0.15 67 1002.8
20260510015526 54 51 0.0 1.0 0.00 0.15 0.15 65 1002.7
20260510015023 55 93 0.0 1.0 0.00 0.15 0.15 63 1002.6
20260510014524 56 59 0.0 1.0 0.00 0.15 0.15 60 1002.4
20260510014021 57 135 0.0 1.0 0.00 0.15 0.15 56 1002.2
20260510013521 58 299 0.0 5.0 0.00 0.15 0.15 55 1002.1
20260510013020 59 302 0.0 4.0 0.00 0.15 0.15 53 1001.9
20260510012019 59 125 0.0 4.0 0.00 0.15 0.15 52 1001.6
20260510011519 60 331 0.0 3.0 0.00 0.15 0.15 52 1001.4
20260510011017 60 276 0.0 1.0 0.00 0.15 0.15 50 1001.4
20260510010518 61 283 0.0 0.0 0.00 0.15 0.15 47 1001.2
20260510010018 61 294 0.0 0.0 0.00 0.15 0.15 43 1000.8
20260510005517 62 294 0.0 0.0 0.00 0.15 0.15 43 1000.5
20260510005016 62 294 0.0 0.0 0.00 0.15 0.15 43 1000.4
20260510004516 62 294 0.0 0.0 0.00 0.15 0.15 41 1000.5
20260510004018 62 260 0.0 1.0 0.00 0.15 0.15 41 1000.4
20260510003517 62 270 0.0 2.0 0.00 0.15 0.15 41 1000.3
20260510003026 62 296 0.0 2.0 0.00 0.15 0.15 41 1000.3
20260510002015 63 258 0.0 1.0 0.00 0.15 0.15 41 1000.1
20260510001521 63 271 0.0 1.0 0.00 0.15 0.15 40 1000.1
20260510001015 63 284 0.0 7.0 0.00 0.15 0.15 40 1000.0
20260510000514 63 266 0.0 11.0 0.00 0.15 0.15 39 999.9
20260510000015 63 306 0.0 11.0 0.00 0.15 0.15 39 999.8
20260509235614 63 297 1.0 6.0 0.00 0.15 0.15 39 999.8
20260509235013 64 311 0.0 11.0 0.00 0.15 0.15 41 999.8
20260509234523 64 298 0.0 8.0 0.00 0.15 0.15 43 999.8
20260509234013 64 265 0.0 6.0 0.00 0.15 0.15 42 999.7
20260509233512 65 277 0.0 9.0 0.00 0.15 0.15 43 999.6
20260509233011 65 298 0.0 9.0 0.00 0.15 0.15 42 999.3
20260509232014 65 259 1.0 9.0 0.00 0.15 0.15 43 999.2
20260509231515 65 293 0.0 5.0 0.00 0.15 0.15 44 999.1
20260509231013 65 292 0.0 10.0 0.00 0.15 0.15 44 999.0
20260509230513 65 293 1.0 10.0 0.00 0.15 0.15 44 998.8
20260509230013 66 289 0.0 5.0 0.00 0.15 0.15 44 998.8
20260509225512 66 334 1.0 11.0 0.00 0.15 0.15 43 998.6
20260509225013 66 285 2.0 11.0 0.00 0.15 0.15 43 998.5
20260509224511 67 248 0.0 6.0 0.00 0.15 0.15 46 998.4
20260509224011 66 195 0.0 12.0 0.00 0.15 0.15 45 998.3
20260509223511 66 257 1.0 8.0 0.00 0.15 0.15 45 998.2
20260509223010 66 288 1.0 9.0 0.00 0.15 0.15 44 998.1
20260509222009 67 285 3.0 16.0 0.00 0.15 0.15 43 997.9
20260509221509 67 250 0.0 13.0 0.00 0.15 0.15 45 997.8
20260509221010 67 250 3.0 15.0 0.00 0.15 0.15 43 997.8
20260509220508 67 205 0.0 15.0 0.00 0.15 0.15 43 997.7
20260509220020 67 253 2.0 12.0 0.00 0.15 0.15 43 997.7
20260509215509 67 271 3.0 16.0 0.00 0.15 0.15 43 997.5
20260509215008 67 283 5.0 16.0 0.00 0.15 0.15 42 997.6
20260509214504 67 264 3.0 11.0 0.00 0.15 0.15 42 997.4
20260509214009 67 293 2.0 13.0 0.00 0.15 0.15 43 997.3
20260509213503 67 265 4.0 13.0 0.01 0.15 0.15 41 997.3
20260509213003 67 271 1.0 17.0 0.02 0.15 0.15 41 997.4
20260509212101 67 224 5.0 20.0 0.02 0.15 0.15 40 997.2
20260509211558 68 260 3.0 20.0 0.02 0.15 0.15 42 997.1
20260509211057 67 246 2.0 14.0 0.02 0.15 0.15 46 997.0
20260509210556 67 246 1.0 14.0 0.02 0.15 0.15 43 997.1
20260509210105 67 256 0.0 11.0 0.02 0.15 0.15 45 997.0
20260509205553 67 277 1.0 12.0 0.02 0.15 0.15 45 997.0
20260509205052 66 271 2.0 17.0 0.02 0.15 0.15 46 997.0
20260509204552 66 231 3.0 17.0 0.02 0.15 0.15 49 997.3
20260509204051 66 349 2.0 15.0 0.02 0.15 0.15 50 997.5
20260509203551 66 280 1.0 8.0 0.02 0.15 0.15 52 997.4
20260509203049 65 40 0.0 4.0 0.01 0.14 0.14 75 997.4
20260509202052 64 263 0.0 3.0 0.01 0.13 0.13 73 997.4
20260509201551 63 242 0.0 0.0 0.01 0.13 0.13 77 997.5
20260509201051 62 306 0.0 0.0 0.02 0.13 0.13 77 997.7
20260509200554 61 255 0.0 2.0 0.03 0.13 0.13 80 997.8
20260509200053 60 265 0.0 2.0 0.06 0.13 0.13 81 997.8
20260509195553 60 255 0.0 1.0 0.09 0.13 0.13 84 997.8
20260509195052 59 291 0.0 1.0 0.12 0.13 0.13 86 997.8
20260509194550 57 257 0.0 2.0 0.12 0.13 0.13 87 997.9
20260509194050 56 267 0.0 2.0 0.12 0.13 0.13 90 998.1
20260509193551 55 238 0.0 1.0 0.12 0.13 0.13 91 998.1
20260509193050 55 250 0.0 1.0 0.13 0.13 0.13 92 998.3
20260509192050 53 110 0.0 1.0 0.12 0.12 0.12 89 998.6
20260509191550 54 280 0.0 3.0 0.12 0.12 0.12 87 998.6
20260509191049 55 284 0.0 3.0 0.11 0.11 0.11 85 998.7
20260509190549 56 214 0.0 6.0 0.10 0.10 0.10 82 999.0
20260509190049 57 213 0.0 9.0 0.09 0.09 0.09 79 998.8
20260509185549 59 266 0.0 9.0 0.05 0.05 0.05 77 998.5
20260509185049 60 188 0.0 1.0 0.03 0.03 0.03 77 997.8
20260509184554 61 243 0.0 4.0 0.01 0.01 0.01 76 997.3
20260509184048 61 250 0.0 4.0 0.01 0.01 0.01 75 996.9
20260509183548 62 117 0.0 4.0 0.01 0.01 0.01 75 997.2
20260509183048 63 233 0.0 6.0 0.01 0.01 0.01 68 997.0
20260509182047 64 242 1.0 9.0 0.00 0.00 0.00 68 996.9
20260509181556 64 311 0.0 6.0 0.00 0.00 0.00 68 996.9
20260509181045 65 220 0.0 9.0 0.00 0.00 0.00 67 996.8
20260509180545 66 305 1.0 9.0 0.00 0.00 0.00 65 996.8
20260509180048 66 304 0.0 5.0 0.00 0.00 0.00 64 996.9
20260509175543 66 227 0.0 6.0 0.00 0.00 0.00 68 997.0
20260509175043 66 305 0.0 6.0 0.00 0.00 0.00 65 997.1
20260509174543 66 201 0.0 6.0 0.00 0.00 0.00 66 997.1
20260509174041 65 243 0.0 6.0 0.00 0.00 0.00 67 997.2
20260509173541 66 209 0.0 9.0 0.00 0.00 0.00 66 997.3
20260509173045 66 274 0.0 6.0 0.00 0.00 0.00 67 997.4
20260509172040 65 310 0.0 4.0 0.00 0.00 0.00 69 997.4
20260509171538 64 209 0.0 3.0 0.00 0.00 0.00 72 997.4
20260509171035 64 234 0.0 4.0 0.00 0.00 0.00 75 997.4
20260509170535 62 224 0.0 4.0 0.00 0.00 0.00 76 997.6
20260509170044 62 228 0.0 2.0 0.00 0.00 0.00 77 997.7
20260509165534 61 259 0.0 5.0 0.00 0.00 0.00 76 997.7
20260509165032 61 139 0.0 5.0 0.00 0.00 0.00 76 997.8
20260509164540 61 281 0.0 2.0 0.00 0.00 0.00 74 998.2
20260509164033 62 226 0.0 2.0 0.00 0.00 0.00 73 998.3
20260509163533 63 211 0.0 7.0 0.00 0.00 0.00 73 998.0
20260509163033 63 142 0.0 3.0 0.00 0.00 0.00 73 997.9
20260509162029 62 264 0.0 2.0 0.00 0.00 0.00 75 998.0
20260509161533 62 273 0.0 2.0 0.00 0.00 0.00 81 998.1
20260509161027 60 217 0.0 4.0 0.00 0.00 0.00 83 998.2
20260509160526 59 204 0.0 4.0 0.00 0.00 0.00 86 998.3
20260509160031 58 264 0.0 1.0 0.00 0.00 0.00 84 998.5
20260509155524 58 206 0.0 3.0 0.00 0.00 0.00 84 998.5
20260509155024 58 192 0.0 6.0 0.00 0.00 0.00 84 998.7
20260509154524 58 225 0.0 6.0 0.00 0.00 0.00 85 998.7
20260509154027 58 201 0.0 1.0 0.00 0.00 0.00 89 998.6
20260509153523 57 55 0.0 1.0 0.00 0.00 0.00 89 998.5
20260509153023 56 217 0.0 1.0 0.00 0.00 0.00 88 998.9
20260509152025 56 178 0.0 2.0 0.00 0.00 0.00 88 999.5
20260509151523 56 110 0.0 2.0 0.00 0.00 0.00 89 999.3
20260509151021 55 58 0.0 0.0 0.00 0.00 0.00 90 999.2
20260509150521 55 206 0.0 1.0 0.00 0.00 0.00 91 999.0
20260509150020 54 214 0.0 1.0 0.00 0.00 0.00 91 999.3
20260509145519 54 217 0.0 0.0 0.00 0.00 0.00 92 999.5
20260509145018 54 189 0.0 0.0 0.00 0.00 0.00 91 1000.0
20260509144517 54 281 0.0 0.0 0.00 0.00 0.00 91 1000.8
20260509144017 54 281 0.0 1.0 0.00 0.00 0.00 91 1001.0
20260509143517 54 241 0.0 1.0 0.00 0.00 0.00 90 1001.0
20260509143017 54 266 0.0 1.0 0.00 0.00 0.00 91 1000.9
20260509142014 55 238 0.0 0.0 0.00 0.00 0.00 91 1000.4
20260509141511 55 155 0.0 1.0 0.00 0.00 0.00 92 1000.2
20260509141015 55 221 0.0 5.0 0.00 0.00 0.00 92 1000.1
20260509140511 55 145 0.0 5.0 0.00 0.00 0.00 91 1000.1
20260509140010 55 237 0.0 3.0 0.00 0.00 0.00 92 1000.0
20260509135513 55 259 0.0 1.0 0.00 0.00 0.00 93 1000.1
20260509135009 55 203 0.0 3.0 0.00 0.00 0.00 95 1000.1
20260509134507 54 41 0.0 4.0 0.00 0.00 0.00 96 1000.2
20260509134006 54 259 0.0 4.0 0.00 0.00 0.00 97 1000.4
20260509133506 53 238 0.0 3.0 0.00 0.00 0.00 98 1000.4
20260509133005 53 300 0.0 2.0 0.00 0.00 0.00 98 1000.4